MEARES Weather Reports


Display with metric or nautical units.
time (UTC)temp
F
wind
direction
speed
MPH
gust
MPH
rain 1hr
in
rain 24hr
in
rain mn
in
humidity
%
barometer
mb
20210926013943 53 7 0.0 7.0 0.00 0.10 0.01 28
20210926013442 53 28 1.0 7.0 0.00 0.10 0.01 28
20210926012942 53 26 1.0 7.0 0.00 0.10 0.01 27
20210926012442 53 29 1.0 8.0 0.00 0.11 0.01 26
20210926011942 53 43 2.0 8.0 0.00 0.11 0.01 27
20210926010942 53 11 4.0 6.0 0.00 0.11 0.01 26
20210926010442 53 35 2.0 6.0 0.00 0.11 0.01 26
20210926005444 53 2 1.0 5.0 0.00 0.11 0.01 26
20210926004442 54 29 0.0 5.0 0.00 0.11 0.01 20
20210926003943 54 15 1.0 6.0 0.00 0.11 0.01 23
20210926003442 54 37 0.0 6.0 0.01 0.11 0.01 24
20210926002942 54 25 0.0 6.0 0.01 0.11 0.01 29
20210926002442 54 0 0.0 0.0 0.01 0.10 0.01 32
20210926001943 54 0 0.0 5.0 0.01 0.10 0.01 34
20210926001443 54 37 0.0 5.0 0.01 0.10 0.01 34
20210926000442 54 25 2.0 6.0 0.01 0.10 0.01 34
20210925235943 54 12 2.0 6.0 0.01 0.10 0.01 37
20210925234943 55 44 2.0 6.0 0.01 0.10 0.01 38
20210925234442 55 0 0.0 0.0 0.01 0.10 0.01 39
20210925233942 54 0 0.0 0.0 0.01 0.10 0.01 38
20210925233443 55 0 0.0 5.0 0.00 0.10 0.01 38
20210925232442 54 64 0.0 5.0 0.00 0.11 0.00 36
20210925231442 54 23 0.0 4.0 0.00 0.11 0.10 35
20210925230942 54 44 1.0 5.0 0.00 0.11 0.10 35
20210925230443 55 49 0.0 5.0 0.00 0.11 0.10 33
20210925225943 55 9 1.0 5.0 0.00 0.11 0.10 33
20210925225442 55 63 2.0 5.0 0.00 0.11 0.10 33
20210925224943 55 19 1.0 5.0 0.00 0.11 0.10 33
20210925224442 55 53 1.0 5.0 0.00 0.11 0.10 33
20210925223942 55 32 0.0 5.0 0.00 0.11 0.10 34
20210925223442 55 28 0.0 5.0 0.00 0.11 0.10 36
20210925222942 55 50 2.0 6.0 0.00 0.11 0.10 37
20210925222442 55 50 0.0 6.0 0.00 0.12 0.10 43
20210925221942 55 42 1.0 6.0 0.00 0.12 0.10 47
20210925221443 55 49 1.0 5.0 0.00 0.12 0.10 46
20210925220942 54 53 1.0 6.0 0.00 0.12 0.10 47
20210925220442 54 61 0.0 6.0 0.00 0.12 0.10 43
20210925215943 55 43 0.0 6.0 0.00 0.12 0.10 42
20210925215442 55 44 2.0 6.0 0.00 0.12 0.10 40
20210925214942 55 63 1.0 6.0 0.00 0.12 0.10 41
20210925214444 55 40 0.0 6.0 0.00 0.12 0.10 40
20210925213942 55 61 2.0 6.0 0.00 0.12 0.10 39
20210925213442 55 56 2.0 8.0 0.00 0.12 0.10 37
20210925212942 55 35 3.0 8.0 0.00 0.12 0.10 37
20210925212442 55 43 4.0 8.0 0.00 0.13 0.10 36
20210925211942 55 74 5.0 7.0 0.00 0.13 0.10 35
20210925211442 56 2 1.0 7.0 0.00 0.13 0.10 37
20210925210942 56 42 4.0 7.0 0.00 0.13 0.10 37
20210925210442 56 30 4.0 7.0 0.00 0.13 0.10 35
20210925205445 55 44 2.0 7.0 0.00 0.13 0.10 33
20210925204442 55 61 2.0 7.0 0.00 0.13 0.10 30
20210925203942 55 32 1.0 7.0 0.00 0.13 0.10 31
20210925203442 55 12 2.0 7.0 0.00 0.13 0.10 30
20210925202942 55 46 3.0 6.0 0.00 0.13 0.10 33
20210925202442 55 357 3.0 6.0 0.01 0.14 0.10 31
20210925201942 55 40 1.0 6.0 0.01 0.14 0.10 30
20210925200942 55 49 0.0 7.0 0.01 0.14 0.10 31
20210925200442 55 47 0.0 7.0 0.01 0.14 0.10 30
20210925195442 55 56 3.0 6.0 0.01 0.14 0.10 27
20210925194942 55 25 2.0 5.0 0.01 0.14 0.10 28
20210925194442 56 39 1.0 4.0 0.01 0.14 0.10 28
20210925193942 55 60 1.0 4.0 0.01 0.14 0.10 27
20210925193442 55 46 0.0 4.0 0.01 0.14 0.10 30
20210925192942 55 22 0.0 4.0 0.01 0.14 0.10 30
20210925191442 55 37 0.0 5.0 0.00 0.13 0.09 29
20210925190942 55 9 1.0 4.0 0.00 0.13 0.09 29
20210925190442 55 28 0.0 4.0 0.00 0.13 0.09 31
20210925185942 55 21 0.0 6.0 0.00 0.13 0.09 31
20210925185442 55 32 0.0 6.0 0.00 0.13 0.09 26
20210925184942 55 21 1.0 6.0 0.00 0.13 0.09 29
20210925184442 55 18 2.0 3.0 0.00 0.13 0.09 30
20210925183942 55 0 0.0 0.0 0.00 0.13 0.09 26
20210925183442 55 0 0.0 0.0 0.00 0.13 0.09 25
20210925182942 55 30 0.0 0.0 0.00 0.13 0.09 26
20210925182441 55 0 0.0 4.0 0.01 0.15 0.09 26
20210925181942 55 63 0.0 4.0 0.01 0.15 0.09 26
20210925181442 55 50 0.0 4.0 0.01 0.15 0.09 25
20210925180441 55 0 0.0 0.0 0.01 0.15 0.09 28
20210925175942 55 0 0.0 4.0 0.01 0.15 0.09 25
20210925175442 55 28 0.0 4.0 0.01 0.15 0.09 26
20210925174942 55 64 1.0 4.0 0.01 0.15 0.09 26
20210925174442 55 44 1.0 4.0 0.01 0.15 0.09 24
20210925173942 55 0 0.0 0.0 0.01 0.15 0.09 23
20210925173442 55 0 0.0 0.0 0.01 0.15 0.09 21
20210925172942 55 0 0.0 4.0 0.01 0.15 0.09 25
20210925172442 55 0 0.0 4.0 0.00 0.14 0.08 24
20210925171942 55 58 0.0 4.0 0.00 0.14 0.08 22
20210925171442 55 40 0.0 4.0 0.00 0.14 0.08 19
20210925170942 55 33 0.0 4.0 0.00 0.14 0.08 15
20210925170442 55 56 0.0 4.0 0.00 0.14 0.08 14
20210925165942 55 28 1.0 3.0 0.00 0.14 0.08 13
20210925165443 55 26 1.0 2.0 0.00 0.14 0.08 10
20210925164942 55 37 0.0 1.0 0.00 0.14 0.08 13
20210925164442 55 0 0.0 0.0 0.00 0.14 0.08 14
20210925163942 55 0 0.0 0.0 0.00 0.14 0.08 12
20210925163442 54 0 0.0 0.0 0.00 0.14 0.08 11
20210925162442 54 39 0.0 2.0 0.00 0.16 0.08 9
20210925161442 54 0 0.0 0.0 0.00 0.16 0.08 9
20210925160942 54 0 0.0 0.0 0.00 0.16 0.08 5
20210925155942 54 0 0.0 0.0 0.00 0.16 0.08 2
20210925154442 54 0 0.0 2.0 0.00 0.16 0.08 3
20210925153942 54 0 0.0 2.0 0.00 0.16 0.08 3
20210925153442 54 28 0.0 2.0 0.00 0.16 0.08 3
20210925152942 54 50 0.0 1.0 0.00 0.16 0.08 3
20210925152442 54 0 0.0 0.0 0.00 0.16 0.08 4
20210925151942 54 0 0.0 0.0 0.00 0.16 0.08 8
20210925151442 54 0 0.0 1.0 0.00 0.16 0.08 4
20210925150942 54 0 0.0 1.0 0.00 0.16 0.08 4
20210925145942 54 23 0.0 7.0 0.01 0.16 0.08 11
20210925145442 53 44 0.0 7.0 0.01 0.16 0.08 14
20210925144942 53 42 1.0 7.0 0.01 0.16 0.08 14
20210925144442 53 44 3.0 6.0 0.01 0.16 0.08 14
20210925143942 53 56 1.0 4.0 0.01 0.16 0.08 6
20210925143442 53 44 0.0 4.0 0.01 0.16 0.08 4
20210925142943 53 33 0.0 4.0 0.01 0.16 0.08 6
20210925142442 53 0 0.0 3.0 0.01 0.16 0.08 13
20210925141942 53 0 0.0 3.0 0.01 0.16 0.08 15
20210925141442 53 0 0.0 3.0 0.01 0.16 0.08 31
20210925140443 53 54 0.0 5.0 0.00 0.16 0.08 33
20210925135942 54 32 1.0 5.0 0.00 0.16 0.08 37
20210925135442 54 340 2.0 7.0 0.00 0.16 0.07 35
20210925134942 54 357 1.0 7.0 0.00 0.16 0.07 43
20210925134444 54 9 2.0 7.0 0.00 0.16 0.07 41
20210925133942 53 30 0.0 6.0 0.00 0.16 0.07 40
20210925133442 53 19 1.0 3.0 0.00 0.16 0.07 40
20210925132442 53 357 1.0 3.0 0.01 0.17 0.07 41
20210925131943 53 8 0.0 6.0 0.01 0.17 0.07 44
20210925131442 53 29 0.0 6.0 0.01 0.17 0.07 47
20210925130942 54 42 0.0 6.0 0.01 0.17 0.07 51
20210925125942 54 30 3.0 7.0 0.01 0.17 0.07 52
20210925125442 54 32 3.0 7.0 0.01 0.17 0.07 56
20210925124942 54 28 3.0 6.0 0.01 0.17 0.07 44
20210925124442 55 29 2.0 5.0 0.01 0.17 0.07 34
20210925123942 55 32 2.0 5.0 0.01 0.17 0.07 32
20210925123442 55 26 2.0 6.0 0.01 0.17 0.07 34
20210925122942 55 42 2.0 6.0 0.01 0.17 0.07 31
20210925122442 55 49 1.0 6.0 0.00 0.16 0.07 30
20210925121942 56 47 0.0 7.0 0.00 0.16 0.07 37
20210925121442 56 42 3.0 7.0 0.00 0.16 0.06 36
20210925120941 56 43 5.0 7.0 0.00 0.16 0.06 35
20210925120442 56 46 6.0 7.0 0.00 0.16 0.06 34
20210925115942 56 49 5.0 5.0 0.00 0.16 0.06 33
20210925115441 57 0 0.0 6.0 0.00 0.16 0.06 32
20210925114942 57 19 0.0 6.0 0.00 0.16 0.06 30
20210925114442 57 15 0.0 6.0 0.00 0.16 0.06 30
20210925113941 57 36 0.0 7.0 0.00 0.16 0.06 30
20210925113441 57 35 1.0 7.0 0.00 0.16 0.06 29
20210925112941 57 30 3.0 7.0 0.00 0.16 0.06 29
20210925112441 57 14 4.0 6.0 0.00 0.17 0.06 30
20210925111941 57 28 3.0 5.0 0.00 0.17 0.06 26
20210925111441 57 16 0.0 5.0 0.00 0.17 0.06 27
20210925110941 57 30 0.0 5.0 0.00 0.17 0.06 28
20210925110441 57 30 0.0 5.0 0.00 0.17 0.06 28
20210925105941 58 47 1.0 7.0 0.00 0.17 0.06 25
20210925105443 59 29 0.0 7.0 0.00 0.17 0.06 23
20210925104941 59 37 3.0 7.0 0.00 0.17 0.06 22
20210925104441 60 39 4.0 7.0 0.00 0.17 0.06 19
20210925103941 60 32 2.0 7.0 0.00 0.17 0.06 19
20210925103442 61 33 4.0 7.0 0.01 0.17 0.06 16
20210925102941 61 50 5.0 9.0 0.01 0.17 0.06 15
20210925102441 62 15 4.0 9.0 0.01 0.17 0.06 16
20210925101941 63 7 4.0 9.0 0.01 0.17 0.06 12
20210925101441 63 32 4.0 8.0 0.01 0.17 0.06 12
20210925100941 64 44 5.0 7.0 0.01 0.17 0.06 11
20210925100442 64 40 5.0 6.0 0.01 0.17 0.06 9
20210925095941 64 44 3.0 4.0 0.01 0.17 0.06 7
20210925095441 65 9 1.0 4.0 0.01 0.17 0.06 7
20210925094941 65 354 0.0 3.0 0.01 0.17 0.06 8
20210925094441 65 336 0.0 3.0 0.01 0.17 0.06 7
20210925093941 65 340 0.0 4.0 0.01 0.17 0.06 5
20210925093441 65 341 0.0 4.0 0.00 0.17 0.06 5
20210925092941 65 320 1.0 4.0 0.00 0.17 0.06 4
20210925092441 65 313 1.0 3.0 0.00 0.17 0.05 4
20210925091941 65 301 1.0 3.0 0.00 0.17 0.05 5
20210925091441 65 299 0.0 3.0 0.00 0.17 0.05 5
20210925090941 65 302 0.0 3.0 0.00 0.17 0.05 6
20210925090441 64 317 0.0 3.0 0.01 0.17 0.05 6
20210925085941 64 306 0.0 2.0 0.01 0.17 0.05 7
20210925085441 64 0 0.0 0.0 0.01 0.17 0.05 8
20210925084941 64 0 0.0 0.0 0.01 0.17 0.05 9
20210925084441 64 0 0.0 0.0 0.01 0.17 0.05 10
20210925083941 65 0 0.0 0.0 0.01 0.17 0.05 9
20210925083441 65 0 0.0 0.0 0.01 0.17 0.05 9
20210925082941 66 0 0.0 0.0 0.01 0.17 0.05 8
20210925082441 66 0 0.0 5.0 0.01 0.17 0.05 4
20210925081941 67 0 0.0 5.0 0.01 0.17 0.05 4
20210925081441 67 22 0.0 5.0 0.01 0.17 0.05 6
20210925080942 68 36 0.0 3.0 0.01 0.17 0.05 4
20210925080441 68 4 0.0 3.0 0.00 0.17 0.05 5
20210925075941 69 0 1.0 1.0 0.00 0.17 0.05 4
20210925075441 70 0 0.0 0.0 0.00 0.17 0.04 4
20210925074442 69 0 0.0 0.0 0.00 0.17 0.04 2
20210925073941 69 0 0.0 0.0 0.00 0.17 0.04 2
20210925073441 69 0 0.0 0.0 0.00 0.17 0.04 2
20210925072441 68 0 0.0 1.0 0.00 0.18 0.04 3
20210925071941 68 266 0.0 1.0 0.00 0.18 0.04 3
20210925070941 68 0 0.0 0.0 0.00 0.18 0.04 4
20210925070441 68 0 0.0 0.0 0.00 0.18 0.04 4
20210925065941 68 0 0.0 0.0 0.00 0.18 0.04 4
20210925065441 69 0 0.0 0.0 0.00 0.18 0.04 3
20210925064941 69 0 0.0 0.0 0.00 0.18 0.04 4
20210925064441 70 0 0.0 0.0 0.00 0.18 0.04 3
20210925063941 70 0 0.0 0.0 0.00 0.18 0.04 2
20210925063441 71 0 0.0 0.0 0.01 0.18 0.04 2
20210925062941 71 0 0.0 0.0 0.01 0.18 0.04 1
20210925062441 72 0 0.0 0.0 0.01 0.17 0.04 1
20210925061941 72 0 0.0 0.0 0.01 0.17 0.04 1
20210925061441 72 0 0.0 0.0 0.01 0.17 0.04 1
20210925060941 72 92 0.0 0.0 0.01 0.17 0.04 1
20210925060441 73 0 0.0 0.0 0.01 0.17 0.04 1
20210925055941 73 0 0.0 0.0 0.01 0.17 0.04 100
20210925055442 73 0 0.0 0.0 0.01 0.17 0.04 100
20210925054941 73 0 0.0 0.0 0.01 0.17 0.04 100
20210925054441 74 0 0.0 0.0 0.01 0.17 0.04 100
20210925053941 74 0 0.0 0.0 0.01 0.17 0.04 100
20210925053441 73 0 0.0 0.0 0.00 0.17 0.04 100
20210925052941 73 0 0.0 0.0 0.00 0.17 0.03 100
20210925052441 72 0 0.0 0.0 0.01 0.18 0.03 100
20210925051941 72 0 0.0 0.0 0.01 0.18 0.03 100
20210925051441 72 0 0.0 0.0 0.01 0.18 0.03 1
20210925050942 72 0 0.0 0.0 0.01 0.18 0.03 1
20210925050441 72 0 0.0 0.0 0.01 0.18 0.03 1
20210925045941 73 0 0.0 0.0 0.01 0.18 0.03 1
20210925045441 73 0 0.0 0.0 0.01 0.18 0.03 100
20210925044941 73 0 0.0 0.0 0.01 0.18 0.03 100
20210925044441 73 0 0.0 0.0 0.01 0.18 0.03 100
20210925043951 73 0 0.0 0.0 0.01 0.18 0.03 100
20210925043441 73 0 0.0 0.0 0.01 0.18 0.03 100
20210925042941 73 0 0.0 0.0 0.01 0.18 0.03 100
20210925042441 73 0 0.0 0.0 0.00 0.17 0.03 100
20210925041941 74 0 0.0 0.0 0.00 0.17 0.03 100
20210925041441 74 0 0.0 0.0 0.00 0.17 0.02 100
20210925040942 74 0 0.0 0.0 0.00 0.17 0.02 100
20210925040441 74 0 0.0 0.0 0.00 0.17 0.02 100
20210925035941 74 0 0.0 0.0 0.00 0.17 0.02 100
20210925035442 75 0 0.0 0.0 0.00 0.17 0.02 100
20210925034941 75 0 0.0 0.0 0.00 0.17 0.02 100
20210925034441 74 0 0.0 0.0 0.00 0.17 0.02 100
20210925033941 74 0 0.0 0.0 0.00 0.17 0.02 100
20210925033441 74 0 0.0 0.0 0.00 0.17 0.02 100
20210925032941 75 0 0.0 0.0 0.00 0.17 0.02 100
20210925032441 75 0 0.0 0.0 0.00 0.18 0.02 100
20210925031941 75 0 0.0 0.0 0.00 0.18 0.02 100
20210925031441 74 0 0.0 0.0 0.00 0.18 0.02 100
20210925030941 74 0 0.0 0.0 0.00 0.18 0.02 100
20210925030441 74 0 0.0 0.0 0.01 0.18 0.02 100
20210925025941 75 0 0.0 0.0 0.01 0.18 0.02 100
20210925024941 74 0 0.0 0.0 0.01 0.18 0.02 100
20210925023941 75 0 0.0 0.0 0.01 0.18 0.02 100
20210925023442 74 0 0.0 0.0 0.01 0.18 0.02 100
20210925022941 75 0 0.0 0.0 0.01 0.18 0.02 100
20210925021941 75 0 0.0 0.0 0.01 0.17 0.02 100
20210925020942 75 0 0.0 2.0 0.01 0.17 0.02 100
20210925015941 75 0 0.0 2.0 0.00 0.17 0.02 100
20210925014941 75 147 0.0 3.0 0.01 0.17 0.01 100
20210925014442 75 130 1.0 3.0 0.01 0.17 0.01 100